Simultaneous Nadir Overpasses (SNOs) Predictions

Prediction of SNOs between GOES-17 and NOAA-20 Satellite Orbit:

Table of predicted SNOs for the next 14.0 days since TLE Epoch: 6/14/2024
Index Date Time (GOES-17) GOES-17 Lat,Lon NOAA-20 Lat,Lon Distance(km) Time Diff (sec)
1 06/15/2024 20:39:28 -0.02,-104.71 -0.93,-108.88 474.43 80
2 06/16/2024 20:23:21 -0.02,-104.71 0.08,-104.33 43.24 80
3 06/19/2024 08:26:18 -0.02,-104.71 0.03,-105.06 39.70 80
4 06/20/2024 08:04:50 -0.02,-104.70 -0.99,-100.52 477.59 80
5 06/21/2024 20:26:41 0.02,-104.70 -0.23,-105.80 125.76 80
6 06/22/2024 20:10:34 0.02,-104.70 0.79,-101.26 391.45 80
7 06/24/2024 08:32:17 -0.01,-104.69 0.38,-106.52 208.02 80
8 06/25/2024 08:10:49 0.00,-104.68 -0.58,-101.97 309.28 80
9 06/26/2024 20:32:41 -0.01,-104.68 -0.56,-107.26 294.09 80
10 06/27/2024 20:16:33 -0.01,-104.68 0.41,-102.71 223.44 80
